Flag for Germany Weather past 2 weeks in Stuttgart, Baden-Württemberg, Germany

Now
39 °F

Broken clouds.


Feels Like: 34 °F
Forecast: 33 / 38 °F
Wind: 7 mph from West

Location: Stuttgart-Echterdingen

Current Time: Dec 25, 2014 at 10:29:07 AM

Latest Report: Dec 25, 2014 at 9:50 AM


Visibility: N/A

Pressure: 30.27 "Hg

Humidity: 81%

Dew point: 34 °F

Location of StuttgartLocation

Historic Weather in Stuttgart — Graph

°F

Stuttgart temperature yesterday

Maximum temperature yesterday: 48 °F (at 1:20 PM)
Minimum temperature yesterday: 28 °F (at 3:20 AM)
Average temperature yesterday: 41 °F

Past Weeks' High & Low Weather Summary

 TemperatureHumidityPressure
High54 °F (Dec 13, 3:20 PM)100% (Dec 14, 2:50 PM)30.51 "Hg (Dec 14, 2:50 PM)
Low28 °F (Dec 24, 3:20 AM)38% (Dec 23, 2:20 PM)29.74 "Hg (Dec 12, 4:50 PM)
Average44 °F80%30.08 "Hg
* Reported Dec 10 9:20 AM — Dec 25 9:20 AM, Stuttgart, Weather by CustomWeather, © 2014

Note: Actual official high and low records may vary slightly from our data, if they occured in-between our weather recording intervals... More about our weather records

Advertising

Stuttgart weather history for previous 24 hours

 ConditionsComfort  
Time TempWeatherWind HumidityBarometerVisibility
9:20 AM
Dec 25
39 °FBroken clouds.9 mph81%30.27 "HgN/A
8:50 AM39 °FBroken clouds.7 mph81%30.27 "HgN/A
8:20 AM39 °FPartly sunny.8 mph81%30.27 "HgN/A
7:50 AM39 °FPassing clouds.9 mph81%30.24 "HgN/A
7:20 AM39 °FPassing clouds.9 mph81%30.24 "HgN/A
6:50 AM39 °FPassing clouds.10 mph81%30.24 "HgN/A
6:20 AM41 °FLight rain. Partly cloudy.18 mph81%30.24 "HgN/A
5:50 AM43 °FRain. Partly cloudy.18 mph87%30.21 "HgN/A
5:20 AM45 °FLight rain. Partly cloudy.9 mph87%30.18 "HgN/A
4:50 AM45 °FLight rain. Partly cloudy.8 mph87%30.18 "HgN/A
4:20 AM45 °FLight rain. Partly cloudy.9 mph93%30.18 "HgN/A
3:50 AM45 °FLight rain. Partly cloudy.9 mph87%30.18 "HgN/A
3:20 AM45 °FLight rain. Partly cloudy.10 mph93%30.18 "HgN/A
2:50 AM45 °FLight rain. Partly cloudy.12 mph87%30.18 "HgN/A
2:20 AM45 °FLight rain. Partly cloudy.14 mph87%30.18 "HgN/A
1:50 AM45 °FLight rain. Passing clouds.14 mph87%30.18 "HgN/A
1:20 AM45 °FPassing clouds.13 mph87%30.18 "HgN/A
12:50 AM45 °FPassing clouds.10 mph81%30.18 "HgN/A
12:20 AM45 °FLight rain. Partly cloudy.13 mph81%30.15 "HgN/A
11:50 PM
Dec 24
45 °FPartly cloudy.14 mph81%30.18 "HgN/A
11:20 PM45 °FPartly cloudy.14 mph81%30.15 "HgN/A
10:50 PM46 °FPartly cloudy.14 mph76%30.15 "HgN/A
10:20 PM46 °FClear.13 mph71%30.15 "Hg10 mi
9:50 PM46 °FPartly cloudy.10 mph71%30.15 "HgN/A
9:20 PM46 °FClear.6 mph71%30.15 "Hg10 mi
8:50 PM46 °FPartly cloudy.8 mph71%30.18 "HgN/A
8:20 PM46 °FPassing clouds.13 mph71%30.15 "HgN/A
7:50 PM46 °FPassing clouds.13 mph71%30.15 "HgN/A
7:20 PM46 °FPassing clouds.9 mph66%30.15 "HgN/A
6:50 PM46 °FPassing clouds.12 mph66%30.15 "HgN/A
6:20 PM46 °FClear.13 mph66%30.15 "Hg10 mi
5:50 PM46 °FClear.13 mph66%30.15 "Hg10 mi
5:20 PM46 °FClear.10 mph66%30.15 "Hg10 mi
4:50 PM46 °FClear.9 mph66%30.15 "Hg10 mi
4:20 PM48 °FScattered clouds.13 mph62%30.15 "HgN/A
3:20 PM48 °FPartly sunny.12 mph62%30.15 "HgN/A
2:50 PM48 °FPartly sunny.10 mph62%30.15 "HgN/A
2:20 PM48 °FScattered clouds.12 mph62%30.15 "HgN/A
1:50 PM48 °FPartly sunny.9 mph66%30.15 "HgN/A
1:20 PM48 °FScattered clouds.12 mph66%30.18 "HgN/A
12:20 PM46 °FPartly sunny.10 mph71%30.18 "HgN/A
11:50 AM45 °FPartly sunny.9 mph71%30.21 "HgN/A
11:20 AM45 °FPartly sunny.9 mph66%30.21 "HgN/A
10:50 AM43 °FPartly sunny.9 mph71%30.21 "HgN/A
10:20 AM41 °FPartly sunny.7 mph76%30.21 "HgN/A
Weather by CustomWeather, © 2014

See weather overviewHow to use our weather pages